• In Portugal
  • List of Countries
  • For 7 days
  • Water Temperature
  • Satellite Maps
  • Weather Map
  • Weather Widgets
  • user-avatar
    Login

    Hourly Weather Malinowka

    Today, 23 October, Tuesday

    Time Temperature Precipitation Wind Pressure Humidity
    00:00 +4°C° 0 mm 3 mps 748 mmHg 91%
    01:00 +4°C° 0 mm 3 mps 748 mmHg 90%
    02:00 +3°C° 0 mm 3 mps 748 mmHg 90%
    03:00 +3°C° 0 mm 4 mps 747 mmHg 91%
    04:00 +3°C° 0 mm 4 mps 747 mmHg 91%
    05:00 +3°C° 0 mm 4 mps 746 mmHg 91%
    06:00 +3°C° 0 mm 5 mps 745 mmHg 89%
    07:00 +3°C° 0 mm 5 mps 744 mmHg 87%
    08:00 +3°C° 0 mm 6 mps 743 mmHg 85%
    09:00 +3°C° 0.5 mm 7 mps 742 mmHg 83%
    10:00 +4°C° 0.5 mm 8 mps 740 mmHg 80%
    11:00 +3°C° 0.5 mm 9 mps 739 mmHg 78%
    12:00 +3°C° 1.2 mm 9 mps 737 mmHg 79%
    13:00 +3°C° 1.2 mm 9 mps 735 mmHg 79%
    14:00 +3°C° 1.2 mm 10 mps 734 mmHg 80%
    15:00 +5°C° 0.8 mm 9 mps 733 mmHg 81%
    16:00 +5°C° 0.8 mm 9 mps 731 mmHg 83%
    17:00 +6°C° 0.8 mm 8 mps 730 mmHg 84%
    18:00 +6°C° 0.3 mm 7 mps 730 mmHg 83%
    19:00 +5°C° 0.3 mm 7 mps 729 mmHg 82%
    20:00 +5°C° 0.3 mm 6 mps 728 mmHg 81%
    21:00 +5°C° 0.2 mm 6 mps 728 mmHg 81%
    22:00 +5°C° 0.2 mm 6 mps 728 mmHg 81%
    23:00 +5°C° 0.2 mm 6 mps 727 mmHg 81%

    Tomorrow, 24 October, Wednesday

    Time Temperature Precipitation Wind Pressure Humidity
    00:00 +5°C° 0.5 mm 6 mps 727 mmHg 81%
    01:00 +5°C° 0.5 mm 5 mps 726 mmHg 81%
    02:00 +5°C° 0.5 mm 5 mps 726 mmHg 81%
    03:00 +5°C° 0.8 mm 5 mps 725 mmHg 82%
    04:00 +3°C° 0.8 mm 6 mps 725 mmHg 82%
    05:00 +3°C° 0.8 mm 6 mps 725 mmHg 83%
    06:00 +3°C° 0.6 mm 6 mps 725 mmHg 79%
    07:00 +2°C° 0.6 mm 7 mps 726 mmHg 76%
    08:00 +1°C° 0.6 mm 8 mps 726 mmHg 73%
    09:00 +2°C° 0.5 mm 8 mps 726 mmHg 73%
    10:00 +2°C° 0.5 mm 9 mps 726 mmHg 73%
    11:00 +2°C° 0.5 mm 10 mps 726 mmHg 74%
    12:00 +3°C° 1.5 mm 11 mps 726 mmHg 75%
    13:00 +4°C° 1.5 mm 11 mps 726 mmHg 76%
    14:00 +4°C° 1.5 mm 12 mps 726 mmHg 77%
    15:00 +4°C° 0.7 mm 12 mps 727 mmHg 77%
    16:00 +4°C° 0.7 mm 11 mps 728 mmHg 77%
    17:00 +4°C° 0.7 mm 11 mps 729 mmHg 77%
    18:00 +4°C° 0.5 mm 11 mps 731 mmHg 77%
    19:00 +5°C° 0.5 mm 10 mps 732 mmHg 77%
    20:00 +3°C° 0.5 mm 10 mps 733 mmHg 78%
    21:00 +3°C° 0.1 mm 9 mps 734 mmHg 78%
    22:00 +3°C° 0.1 mm 9 mps 735 mmHg 77%
    23:00 +4°C° 0.1 mm 8 mps 736 mmHg 77%

    Day after tomorrow, 25 October, Thursday

    Time Temperature Precipitation Wind Pressure Humidity
    00:00 +3°C° 0 mm 7 mps 736 mmHg 78%
    01:00 +3°C° 0 mm 7 mps 737 mmHg 79%
    02:00 +2°C° 0 mm 6 mps 737 mmHg 80%
    03:00 +2°C° 0 mm 5 mps 737 mmHg 82%
    04:00 +2°C° 0 mm 5 mps 737 mmHg 83%
    05:00 +2°C° 0 mm 5 mps 737 mmHg 85%
    06:00 +3°C° 0 mm 4 mps 737 mmHg 84%
    07:00 +3°C° 0 mm 4 mps 736 mmHg 84%
    08:00 +3°C° 0 mm 4 mps 736 mmHg 83%
    09:00 +3°C° 0.2 mm 4 mps 735 mmHg 82%
    10:00 +3°C° 0.2 mm 4 mps 734 mmHg 80%
    11:00 +4°C° 0.2 mm 4 mps 733 mmHg 79%
    12:00 +4°C° 0.8 mm 4 mps 733 mmHg 81%
    13:00 +4°C° 0.8 mm 3 mps 732 mmHg 83%
    14:00 +3°C° 0.8 mm 3 mps 731 mmHg 85%
    15:00 +4°C° 0.2 mm 3 mps 732 mmHg 86%
    16:00 +4°C° 0.2 mm 3 mps 732 mmHg 86%
    17:00 +5°C° 0.2 mm 2 mps 732 mmHg 86%
    18:00 +4°C° 0 mm 2 mps 733 mmHg 88%
    19:00 +4°C° 0 mm 2 mps 734 mmHg 91%
    20:00 +3°C° 0 mm 2 mps 734 mmHg 93%
    21:00 +3°C° 0 mm 2 mps 735 mmHg 93%
    22:00 +3°C° 0 mm 2 mps 735 mmHg 94%
    23:00 +3°C° 0 mm 2 mps 736 mmHg 94%

    26 October, Friday

    Time Temperature Precipitation Wind Pressure Humidity
    00:00 +3°C° 0 mm 2 mps 736 mmHg 94%
    01:00 +2°C° 0 mm 3 mps 736 mmHg 94%
    02:00 +2°C° 0 mm 3 mps 737 mmHg 94%
    03:00 +2°C° 0.1 mm 3 mps 737 mmHg 93%
    04:00 +2°C° 0.1 mm 3 mps 737 mmHg 93%
    05:00 +3°C° 0.1 mm 4 mps 737 mmHg 92%
    06:00 +3°C° 0 mm 3 mps 738 mmHg 92%
    07:00 +2°C° 0 mm 3 mps 738 mmHg 92%
    08:00 +2°C° 0 mm 3 mps 738 mmHg 93%
    09:00 +4°C° 0 mm 3 mps 738 mmHg 87%
    10:00 +5°C° 0 mm 4 mps 739 mmHg 81%
    11:00 +6°C° 0 mm 4 mps 739 mmHg 75%
    12:00 +7°C° 0 mm 4 mps 739 mmHg 73%
    13:00 +7°C° 0 mm 4 mps 739 mmHg 71%
    14:00 +9°C° 0 mm 3 mps 739 mmHg 70%
    15:00 +8°C° 0.1 mm 3 mps 739 mmHg 75%
    16:00 +8°C° 0.1 mm 3 mps 739 mmHg 79%
    17:00 +7°C° 0.1 mm 2 mps 739 mmHg 84%
    18:00 +7°C° 0 mm 2 mps 739 mmHg 85%
    19:00 +5°C° 0 mm 3 mps 739 mmHg 86%
    20:00 +4°C° 0 mm 3 mps 739 mmHg 87%
    21:00 +4°C° 0.1 mm 4 mps 739 mmHg 87%
    22:00 +4°C° 0.1 mm 4 mps 738 mmHg 86%
    23:00 +4°C° 0.1 mm 4 mps 738 mmHg 86%

    27 October, Saturday

    Time Temperature Precipitation Wind Pressure Humidity
    00:00 +5°C° 0.2 mm 5 mps 738 mmHg 86%
    01:00 +5°C° 0.2 mm 5 mps 737 mmHg 87%
    02:00 +4°C° 0.2 mm 6 mps 736 mmHg 88%
    03:00 +5°C° 0 mm 6 mps 736 mmHg 88%
    04:00 +5°C° 0 mm 6 mps 735 mmHg 89%
    05:00 +5°C° 0 mm 6 mps 735 mmHg 89%
    06:00 +5°C° 0.1 mm 6 mps 735 mmHg 89%
    07:00 +7°C° 0.1 mm 6 mps 734 mmHg 89%
    08:00 +7°C° 0.1 mm 6 mps 734 mmHg 90%
    09:00 +7°C° 0 mm 6 mps 734 mmHg 87%
    10:00 +8°C° 0 mm 6 mps 735 mmHg 84%
    11:00 +8°C° 0 mm 7 mps 735 mmHg 81%
    12:00 +8°C° 0 mm 6 mps 735 mmHg 76%
    13:00 +8°C° 0 mm 6 mps 735 mmHg 71%
    14:00 +8°C° 0 mm 5 mps 735 mmHg 66%
    15:00 +8°C° 0 mm 5 mps 735 mmHg 68%
    16:00 +7°C° 0 mm 4 mps 735 mmHg 69%
    17:00 +7°C° 0 mm 3 mps 736 mmHg 70%
    18:00 +7°C° 0 mm 3 mps 736 mmHg 70%
    19:00 +7°C° 0 mm 3 mps 736 mmHg 71%
    20:00 +5°C° 0 mm 3 mps 736 mmHg 71%
    21:00 +5°C° 0 mm 3 mps 736 mmHg 73%
    22:00 +4°C° 0 mm 3 mps 736 mmHg 75%
    23:00 +4°C° 0 mm 3 mps 736 mmHg 76%

    28 October, Sunday

    Time Temperature Precipitation Wind Pressure Humidity
    00:00 +4°C° 0 mm 3 mps 736 mmHg 77%
    01:00 +4°C° 0 mm 3 mps 737 mmHg 78%
    02:00 +3°C° 0 mm 3 mps 737 mmHg 78%
    03:00 +4°C° 0 mm 2 mps 736 mmHg 79%
    04:00 +4°C° 0 mm 2 mps 736 mmHg 79%
    05:00 +4°C° 0 mm 2 mps 736 mmHg 80%
    06:00 +4°C° 0 mm 2 mps 736 mmHg 80%
    07:00 +4°C° 0 mm 2 mps 736 mmHg 79%
    08:00 +4°C° 0 mm 2 mps 736 mmHg 79%
    09:00 +5°C° 0.1 mm 2 mps 736 mmHg 77%
    10:00 +5°C° 0.1 mm 2 mps 736 mmHg 75%
    11:00 +6°C° 0.1 mm 2 mps 736 mmHg 72%
    12:00 +6°C° 0.2 mm 2 mps 736 mmHg 73%
    13:00 +5°C° 0.2 mm 3 mps 736 mmHg 73%
    14:00 +5°C° 0.2 mm 3 mps 736 mmHg 74%
    15:00 +5°C° 0.1 mm 4 mps 736 mmHg 75%
    16:00 +5°C° 0.1 mm 4 mps 737 mmHg 76%
    17:00 +4°C° 0.1 mm 4 mps 737 mmHg 78%
    18:00 +4°C° 0.1 mm 4 mps 738 mmHg 78%
    19:00 +3°C° 0.1 mm 5 mps 738 mmHg 79%
    20:00 +3°C° 0.1 mm 5 mps 739 mmHg 79%
    21:00 +2°C° 0 mm 5 mps 739 mmHg 79%
    22:00 +2°C° 0 mm 5 mps 740 mmHg 79%
    23:00 +2°C° 0 mm 5 mps 741 mmHg 79%

    29 October, Monday

    Time Temperature Precipitation Wind Pressure Humidity
    00:00 +1°C° 0 mm 5 mps 741 mmHg 79%
    01:00 +1°C° 0 mm 5 mps 742 mmHg 80%
    02:00 0°C° 0 mm 4 mps 742 mmHg 80%
    03:00 0°C° 0 mm 4 mps 742 mmHg 80%
    04:00 0°C° 0 mm 4 mps 743 mmHg 81%
    05:00 -1°C° 0 mm 4 mps 743 mmHg 81%
    06:00 -1°C° 0 mm 4 mps 743 mmHg 80%
    07:00 -1°C° 0 mm 4 mps 744 mmHg 79%
    08:00 -1°C° 0 mm 5 mps 745 mmHg 78%
    09:00 +1°C° 0 mm 5 mps 745 mmHg 75%
    10:00 +2°C° 0 mm 5 mps 746 mmHg 72%
    11:00 +3°C° 0 mm 5 mps 746 mmHg 69%
    12:00 +5°C° 0 mm 5 mps 746 mmHg 67%
    13:00 +5°C° 0 mm 4 mps 747 mmHg 65%
    14:00 +6°C° 0 mm 4 mps 747 mmHg 62%
    15:00 +5°C° 0 mm 3 mps 747 mmHg 66%
    16:00 +5°C° 0 mm 2 mps 747 mmHg 70%
    17:00 +4°C° 0 mm 2 mps 746 mmHg 73%
    18:00 +4°C° 0 mm 2 mps 747 mmHg 75%
    19:00 +3°C° 0 mm 2 mps 747 mmHg 78%
    20:00 +3°C° 0 mm 2 mps 747 mmHg 80%
    21:00 +3°C° 0 mm 2 mps 747 mmHg 80%
    22:00 +3°C° 0 mm 2 mps 747 mmHg 80%
    23:00 +3°C° 0 mm 2 mps 747 mmHg 80%
    Show more